Location: Feuillères
(49.9477°N, 2.8469°E)
Time: 03:26:59
(UTC+00:00)

Daily predictions for brighter satellites

Satellite Brightness Start Highest point End
(mag) Time Altitude Azimuth Time Altitude Azimuth Time Altitude Azimuth
H-2A R/B 3.9 02:58:50 10° NE 03:02:38 25° E 03:02:38 25° E
NOSS 3-1 (A) 4.1 03:23:44 69° S 03:23:44 69° S 03:31:28 10° SSE
Cosmos 1980 Rocket 3.4 03:23:21 34° SE 03:24:15 36° ESE 03:29:20 10° NE
USA 281 3.9 03:21:57 10° SE 03:28:15 51° NE 03:32:53 19° NNW
ATLAS 3B R/B 3.0 03:27:51 62° NNW 03:29:15 77° NE 03:37:01 10° SE
USA 267 3.7 03:31:53 10° ENE 03:38:05 49° N 03:38:49 47° NNW
Cosmos 1697 Rocket 3.1 03:42:44 57° NNE 03:42:44 57° NNE 03:47:12 10° NNE
ATLAS CENTAUR R/B 3.6 03:43:56 20° ENE 03:43:56 20° ENE 03:45:20 10° NE
Lacrosse 4 Rocket 3.5 03:49:00 22° SE 03:49:00 22° SE 03:50:30 10° SE
ATLAS 2AS CENTAUR R/B 2.6 03:47:22 75° SW 03:48:03 88° NW 03:55:06 10° NE
Cosmos 1452 Rocket 4.0 03:52:05 54° NNE 03:52:05 54° NNE 03:56:06 10° NNE
Cosmos 1818 4.3 03:51:22 43° SSE 03:52:26 50° ESE 03:57:43 10° NE
USA 59 Rocket 1.5 03:53:36 31° NE 03:53:36 31° NE 03:57:12 10° ESE
CZ-2C R/B 3.5 03:54:03 10° NNE 03:56:42 33° N 03:56:42 33° N
Cosmos 2263 Rocket 2.1 04:00:00 82° S 04:00:00 82° S 04:05:24 10° SSE
Cosmos 2082 3.6 04:03:03 63° NNW 04:04:02 85° ENE 04:09:43 10° SSE
Cosmos 2266 Rocket 4.0 04:04:30 10° S 04:10:56 85° E 04:17:21 10° N
BREEZE-M DEB (TANK) 3.1 04:14:05 44° E 04:14:05 44° E 04:17:38 10° E
NOSS 2-1 (E) 4.0 04:20:27 46° NNE 04:20:52 48° NE 04:25:25 10° ESE
SL-16 R/B 4.3 04:19:08 10° SSE 04:23:45 26° ESE 04:28:23 10° NE
USA 229 DEB 3.9 04:21:54 30° NW 04:26:06 90° SW 04:34:13 10° SE
USA 229 3.9 04:22:00 30° NW 04:26:13 90° NNE 04:34:19 10° SE
Cosmos 1484 Rocket 3.4 04:24:13 10° NNE 04:27:39 49° E 04:30:40 13° S
Cosmos 304 Rocket 3.8 04:26:56 35° NNW 04:28:58 79° ENE 04:33:43 10° SSE
Cosmos 1655 Rocket 4.1 04:24:05 10° S 04:30:27 79° E 04:36:49 10° NNE
Cosmos 1110 Rocket 4.5 04:32:05 41° NW 04:32:05 41° NW 04:36:34 10° NNE
IRAS Rocket 4.1 04:28:03 10° NNE 04:33:36 80° WNW 04:39:07 10° SSW
S3M 4.0 04:29:02 10° NNW 04:35:10 57° W 04:41:11 10° S
Cosmos 2219 3.5 04:35:43 43° WSW 04:35:43 43° WSW 04:40:44 10° S
SKYMED 2 4.1 04:32:08 10° SSE 04:36:23 58° ENE 04:40:41 10° N
BREEZE-M DEB (TANK) 4.1 04:39:15 14° SSE 04:39:46 15° SSE 04:41:28 10° ESE
H-2A R/B 2.1 04:37:45 10° N 04:42:35 49° WNW 04:43:09 46° W
BREEZE-M DEB (TANK) 3.5 04:45:30 33° S 04:45:37 33° S 04:50:53 10° ESE
Cosmos 1328 4.4 04:43:34 10° S 04:47:11 53° E 04:50:48 10° NNE
SL-8 R/B 4.3 04:49:43 27° SW 04:51:56 49° SSE 04:56:31 10° E
Meteor 1-24 Rocket 3.6 04:46:49 10° SSW 04:52:13 60° WNW 04:57:31 10° N
ARIANE 5 R/B 4.3 04:48:37 10° NNE 04:53:13 34° E 04:57:50 10° SSE
ARGOS 3.1 04:48:18 10° NNE 04:53:46 85° WNW 04:59:11 10° SSW
Thor Agena Rocket 3.4 04:50:08 10° NNE 04:55:21 69° WNW 05:00:27 10° SSW
Cosmos 2221 Rocket 4.5 04:51:24 10° S 04:55:39 50° E 04:59:57 10° NNE
Meteor 2-20 Rocket 4.3 04:53:22 10° NNW 04:59:11 58° W 05:04:48 10° S
Cosmos 1844 Rocket 3.0 04:53:48 10° NNW 04:59:27 65° ENE 05:05:01 10° SE
NOSS 2-1 (C) 3.3 04:58:21 39° NW 04:59:45 83° SW 05:04:41 10° SE
Cosmos 2322 Rocket 4.0 04:58:17 10° SSE 05:03:16 33° ESE 05:08:14 10° NE
Sich 1 Rocket 3.6 05:00:28 10° N 05:04:57 88° ENE 05:09:28 10° S
H-2A R/B 4.0 05:04:17 10° NE 05:06:28 26° E 05:08:37 10° SSE
IRS-1D 4.0 05:03:39 10° N 05:08:08 34° WNW 05:09:55 26° WSW
Cosmos 1980 Rocket 2.5 05:05:09 24° WSW 05:08:09 45° NW 05:13:32 10° NNE
YAOGAN 11 4.1 05:06:15 10° SSE 05:10:35 85° ENE 05:15:02 10° NNW
Cosmos 2369 3.7 05:07:06 12° SW 05:12:13 57° NW 05:17:48 10° NNE
USA 281 3.6 05:06:46 10° S 05:12:53 41° WSW 05:19:03 10° NW
Cosmos 1378 Rocket 3.4 05:11:27 10° SSW 05:15:50 71° WNW 05:20:15 10° N
FengYun 1-2 T 4.2 05:11:07 10° NNE 05:16:46 79° WNW 05:22:24 10° SSW
Cosmos 1674 Rocket 3.4 05:13:31 10° SSW 05:17:49 82° W 05:22:11 10° N
Cosmos 1025 Rocket 3.9 05:14:18 10° S 05:18:24 50° E 05:22:32 10° NNE
Cosmos 371 Rocket 3.9 05:16:34 22° NW 05:18:55 35° WSW 05:23:17 10° SSW
ATLAS CENTAUR R/B 2.1 05:18:24 26° NW 05:18:57 27° NW 05:22:20 10° NNE
ATLAS 3B R/B 3.6 05:15:09 20° WNW 05:19:30 33° WSW 05:26:09 10° S
Okean 2 Rocket 3.0 05:16:09 10° NNW 05:20:36 63° W 05:24:59 10° S
USA 267 3.4 05:14:12 10° ESE 05:20:42 72° NNE 05:26:08 16° WNW
Meteor 2-5 Rocket 4.1 05:15:27 10° SW 05:20:48 39° WNW 05:26:05 10° N
ARIANE 6 FM1 Upper Stage 3.3 05:18:05 10° SSW 05:22:13 58° SE 05:26:26 10° NE
Cosmos 482 Debris 4.3 05:20:32 25° W 05:23:05 74° NNW 05:26:43 10° ENE
Cosmos 1939 Rocket 3.5 05:19:53 10° N 05:23:08 29° WNW 05:24:26 23° WSW
Cosmos 1503 Rocket 4.2 05:17:57 10° NNW 05:23:18 76° ENE 05:28:33 10° SSE
Lacrosse 4 Rocket 3.1 05:24:51 16° WSW 05:24:51 16° WSW 05:26:39 10° SSW
Cosmos 1486 Rocket 3.9 05:18:51 10° NNW 05:24:04 73° WSW 05:29:14 10° SSE
COSMO-SKYMED 1 2.8 05:20:16 10° S 05:24:28 48° W 05:28:43 10° NNW
Cosmos 332 Rocket 3.7 05:19:46 10° NNW 05:24:41 84° WSW 05:29:33 10° SSE
Cosmos 1992 Rocket 4.0 05:19:36 10° SW 05:24:46 63° WNW 05:29:59 10° NNE
NOAA 12 4.1 05:20:16 10° NNE 05:25:38 86° WNW 05:30:58 10° SSW
Cosmos 1697 Rocket 3.9 05:24:29 20° WNW 05:26:16 22° NW 05:30:41 10° NNE
SL-08 R/B 4.3 05:23:12 10° SE 05:27:47 49° ENE 05:32:18 10° N
Cosmos 1844 3.7 05:22:29 10° NNW 05:28:10 90° ENE 05:33:54 10° SSE
NOSS 2-1 (D) 3.9 05:29:47 21° WNW 05:32:04 46° SW 05:36:56 10° SSE
Cosmos 2098 Rocket 2.4 05:28:15 10° NNW 05:32:09 70° W 05:35:24 10° S
Cosmos 2227 4.4 05:28:53 10° NW 05:34:22 51° WSW 05:39:50 10° S
SJ-11-01 4.2 05:31:17 10° N 05:35:56 72° WNW 05:40:34 10° SSW
Cosmos 1818 4.1 05:32:02 15° WSW 05:36:09 41° NW 05:41:20 10° NNE
CZ-2C R/B 4.1 05:33:50 10° NNW 05:35:56 14° NW 05:35:56 14° NW
CRYOSAT 2 4.3 05:34:47 10° S 05:39:39 72° W 05:44:33 10° N
ATLAS 2AS CENTAUR R/B 3.5 05:34:49 16° W 05:39:49 35° NNW 05:46:07 10° NE
USA 59 Rocket 0.7 05:39:52 17° WNW 05:42:32 40° SW 05:47:25 10° SSE
Cosmos 2263 Rocket 3.6 05:41:46 15° W 05:42:49 16° W 05:46:01 10° SW
Cosmos 1455 Rocket 3.3 05:39:02 10° N 05:43:25 72° E 05:47:44 10° SSE
NOSS 3 (A) 2.8 05:42:42 23° SW 05:43:29 78° SE 05:45:02 10° NE
Nadezhda 1 Rocket 4.0 05:38:00 10° N 05:44:12 89° W 05:50:17 10° S
CBERS-1 4.4 05:41:12 10° N 05:46:00 42° WNW 05:50:48 10° SW
Cosmos 2237 4.2 05:42:07 10° SW 05:47:47 69° WNW 05:53:29 10° NNE
Cosmos 1869 3.4 05:47:42 10° N 05:51:32 75° E 05:55:20 10° SSE
SL-08 R/B 4.4 05:45:39 10° SSW 05:51:42 67° WNW 05:57:53 10° N
Cosmos 1437 Rocket 3.4 05:51:56 10° SW 05:55:03 28° WNW 05:58:15 10° N
Cosmos 2360 Rocket 2.8 05:49:35 10° SSW 05:55:06 63° ESE 06:00:40 10° NE
Meteor 2-1 Rocket 4.4 05:49:46 10° N 05:55:35 81° ENE 06:01:12 10° SSE
Cosmos 1484 Rocket 4.2 05:58:43 10° NNW 06:00:48 15° WNW 06:02:54 10° W
Okean 1 Rocket 3.7 05:57:58 10° NNW 06:02:02 35° W 06:06:06 10° SSW
Cosmos 1606 2.5 05:58:44 10° NNW 06:02:03 52° W 06:05:20 10° S
Cosmos 1354 Rocket 4.0 05:57:59 10° NNW 06:03:18 72° WSW 06:08:32 10° SSE
BREEZE-M DEB (TANK) 2.5 05:59:23 10° W 06:04:45 73° SSW 06:06:54 10° ESE
Cosmos 2084 Rocket 3.4 06:01:18 10° SW 06:05:35 65° NW 06:09:45 10° NE
SL-16 R/B 2.2 06:01:50 10° SW 06:07:26 61° WNW 06:13:05 10° NNE
Cosmos 292 Rocket 3.8 06:04:03 10° NNW 06:08:53 85° WSW 06:13:42 10° SSE
Gbstr 26 Del rocket 3.6 06:05:52 10° WSW 06:10:40 88° SSE 06:16:42 10° ENE
CZ-2D R/B 3.1 06:07:33 10° N 06:11:01 55° WNW 06:14:27 10° SSW
EXPRESS MD2 3.4 06:11:18 10° SW 06:14:12 41° SSE 06:16:23 10° E
ADEOS Rocket 3.4 06:07:25 10° NNE 06:14:48 90° E 06:21:25 10° SSW
Cosmos 1763 Rocket 4.4 06:10:20 10° S 06:15:23 55° ESE 06:20:33 10° NNE
CZ-2D R/B 3.3 06:12:42 10° N 06:16:37 73° WNW 06:20:35 10° SSW
Cosmos 2228 3.9 06:12:37 10° N 06:16:41 51° ENE 06:20:43 10° SSE
SJ-12 4.1 06:15:24 10° N 06:19:11 45° WNW 06:22:56 10° SW
